Weather History for VIJP - February, 2013

Change the Weather History Date:

Sunday, February 24, 2013

  Actual Average Record
Temperature  
Mean Temperature 66 °F -  
Max Temperature 76 °F - - ()
Min Temperature 56 °F - - ()
Cooling Degree Days 1    
Growing Degree Days 16 (Base 50)    
Moisture  
Dew Point 52 °F    
Average Humidity 61    
Maximum Humidity 88    
Minimum Humidity 31    
Precipitation  
Precipitation 0.00 in - - ()
Sea Level Pressure  
Sea Level Pressure 30.09 in    
Wind  
Wind Speed 4 mph ()    
Max Wind Speed 8 mph    
Max Gust Speed -    
Visibility 1.9 miles    
Events      
T = Trace of Precipitation, MM = Missing Value Source: Averaged Metar Reports

Daily Weather History Graph

Daily Weather History Graph

Search for Another Location

Airport or City:

Trip Planner

Search our weather history database for the weather conditions in past years. The results will help you decide how hot, cold, wet, or windy it might be!

Date:

Astronomy

Feb. 24, 2013 Rise Set
Actual Time 6:55 AM IST 6:24 PM IST
Civil Twilight 6:32 AM IST 6:48 PM IST
Nautical Twilight 6:05 AM IST 7:15 PM IST
Astronomical Twilight 5:38 AM IST 7:42 PM IST
Moon 5:10 PM IST (2/24) 5:32 AM IST (2/24)
Length of Visible Light 12h 16m
Length of Day
11h 29m
Waxing Gibbous, 97% of the Moon is Illuminated
Feb 24
Waxing Gibbous
Feb 26
Full
Mar 5
Last Quarter
Mar 12
New
Mar 19
First Quarter

Hourly Weather History & Observations

Time (IST) Temp. Dew Point Humidity Pressure Visibility Wind Dir Wind Speed Gust Speed Precip Events Conditions
12:00 AM 64.4 °F 51.8 °F 64% 30.09 in 1.2 mi Variable 8.1 mph - N/A   Scattered Clouds
1:00 AM 60.8 °F 53.6 °F 77% 30.09 in 1.2 mi East 5.8 mph - N/A   Scattered Clouds
2:30 AM 61 °F 56 °F 77% 30.05 in 1 mi East 5.8 mph - -   Mist
3:00 AM 59.0 °F 55.4 °F 88% 30.06 in 1.2 mi ENE 5.8 mph - N/A   Scattered Clouds
5:00 AM 59.0 °F 55.4 °F 88% 30.06 in 1.2 mi Variable 2.3 mph - N/A   Scattered Clouds
5:30 AM 59 °F 54 °F 77% 30.05 in 1 mi Calm Calm - -   Mist
6:00 AM 59.0 °F 53.6 °F 82% 30.06 in 1.2 mi Variable 3.5 mph - N/A   Scattered Clouds
7:00 AM 57.2 °F 53.6 °F 88% 30.09 in 1.2 mi Variable 2.3 mph - N/A   Partly Cloudy
8:00 AM 59.0 °F 55.4 °F 88% 30.12 in 1.6 mi Calm Calm - N/A   Partly Cloudy
8:30 AM 60 °F 54 °F 74% 30.11 in 1 mi ENE 4.6 mph - -   Haze
10:00 AM 64.4 °F 51.8 °F 64% 30.18 in 2.5 mi Variable 3.5 mph - N/A   Haze
12:00 PM 69.8 °F 51.8 °F 53% 30.15 in 3.1 mi Variable 2.3 mph - N/A   Haze
1:00 PM 71.6 °F 50.0 °F 46% 30.12 in 3.1 mi WNW 5.8 mph - N/A   Haze
2:00 PM 73.4 °F 50.0 °F 44% 30.09 in 3.1 mi Variable 2.3 mph - N/A   Haze
2:30 PM 74 °F 50 °F 32% 30.04 in 2 mi NW 5.8 mph - -   Haze
3:00 PM 73.4 °F 48.2 °F 41% 30.06 in 3.1 mi NW 6.9 mph - N/A   Haze
4:00 PM 73.4 °F 48.2 °F 41% 30.06 in 3.1 mi Variable 8.1 mph - N/A   Haze
5:00 PM 75.2 °F 48.2 °F 38% 30.06 in 3.1 mi Variable 5.8 mph - N/A   Haze
5:30 PM 73 °F 48 °F 31% 30.02 in 2 mi NW 2.3 mph - -   Haze
6:00 PM 73.4 °F 48.2 °F 41% 30.06 in 3.1 mi Variable 4.6 mph - N/A   Haze
7:00 PM 69.8 °F 50.0 °F 49% 30.09 in 2.2 mi Variable 3.5 mph - N/A   Haze
8:00 PM 68.0 °F 50.0 °F 52% 30.12 in 1.9 mi Calm Calm - N/A   Haze
8:30 PM 68 °F 51 °F 44% 30.07 in 1 mi Calm Calm - -   Haze
9:00 PM 66.2 °F 51.8 °F 60% 30.12 in 1.9 mi East 8.1 mph - N/A   Haze
10:00 PM 64.4 °F 53.6 °F 68% 30.12 in 1.9 mi East 6.9 mph - N/A   Haze
11:00 PM 62.6 °F 53.6 °F 72% 30.12 in 1.9 mi ENE 4.6 mph - N/A   Haze
11:30 PM 63 °F 53 °F 63% 30.09 in 1 mi East 3.5 mph - -   Haze